Location: North Runcton
(52.7000°N, 0.4333°E)
Time: 11:46:24
(UTC+00:00)

Cosmos 1821 Rocket - Pass Details

Date: 19 May 2025
Orbit: 943 x 1004 km, 82.9° (Epoch: 11 June)

Event Time Altitude Azimuth Distance (km) Brightness Sun altitude
Rises 22:11:46 0° 347° (NNW) 3,645 8.7 -14.0°
Reaches altitude 10° 22:14:18 10° 345° (NNW) 2,689 7.7 -14.1°
Maximum altitude 22:20:21 66° 265° (W) 1,034 4.2 -14.5°
Enters shadow 22:25:07 17° 187° (S) 2,208 5.4 -14.8°
